{"data":{"norad_id":59002,"epoch":"2026-09-20T22:44:04.094304Z","epoch_age_seconds":117663,"freshness":"FRESH","line1":"1 59002U 24036E   26263.94726961 -.00000156  00000+0  67289-5 0  9993","line2":"2 59002  53.1583 250.7847 0001406  86.0930 274.0232 15.31697263145220","mean_motion":15.31697263,"eccentricity":0.0001406,"inclination_deg":53.1583,"raan_deg":250.7847,"arg_perigee_deg":86.093,"mean_anomaly_deg":274.0232,"bstar":6.7289e-6,"rev_number":14522,"period_min":94.013355953878,"perigee_km":469.78520083971,"apogee_km":471.71110734504,"semimajor_km":6848.8851540924,"source":"CELESTRAK","updated_at":"2026-09-21T09:00:34.023816Z"}}